This is the latest recevied weather packets stored in our database for station/object K1ZK-13. If no packets are shown the sender has not sent any weather packets the latest 10 day(s).
| Time | Temp. | Humidity | Pressure | Rain* | Wind** | Luminosity | Snow |
|---|---|---|---|---|---|---|---|
| 1777978630 | 15° C | 63% | 1005.2 hPa | 0 mm | - | 44 W/m² | - |
| 1777978325 | 14.44° C | 64% | 1005.3 hPa | 0 mm | - | 41 W/m² | - |
| 1777978022 | 14.44° C | 65% | 1005.2 hPa | 0 mm | - | 38 W/m² | - |
| 1777977720 | 14.44° C | 65% | 1005.3 hPa | 0 mm | - | 35 W/m² | - |
| 1777977415 | 14.44° C | 65% | 1005.3 hPa | 0 mm | - | 29 W/m² | - |
| 1777977114 | 14.44° C | 65% | 1005.3 hPa | 0 mm | - | 24 W/m² | - |
| 1777976811 | 14.44° C | 65% | 1005.1 hPa | 0 mm | - | 19 W/m² | - |
| 1777976508 | 14.44° C | 65% | 1005.1 hPa | 0 mm | - | 18 W/m² | - |
| 1777976207 | 14.44° C | 66% | 1005 hPa | 0 mm | - | 14 W/m² | - |
| 1777975903 | 14.44° C | 65% | 1005.2 hPa | 0 mm | - | 10 W/m² | - |
| 1777975599 | 14.44° C | 63% | 1005.1 hPa | 0 mm | - | 4 W/m² | - |
| 1777975296 | 15° C | 62% | 1005.1 hPa | 0 mm | - | 2 W/m² | - |
| 1777974992 | 15° C | 61% | 1005.1 hPa | 0 mm | - | 2 W/m² | - |
| 1777974690 | 15° C | 60% | 1005.3 hPa | 0 mm | - | 1 W/m² | - |
| 1777974386 | 15° C | 60% | 1005.1 hPa | 0 mm | - | 1 W/m² | - |
| 1777974082 | 15° C | 60% | 1005.1 hPa | 0 mm | - | 1 W/m² | - |
| 1777973778 | 15° C | 60% | 1005.2 hPa | 0 mm | - | 1 W/m² | - |
| 1777973476 | 14.44° C | 61% | 1005.2 hPa | 0 mm | - | 1 W/m² | - |
| 1777973173 | 14.44° C | 61% | 1005.2 hPa | 0 mm | - | 0 W/m² | - |
| 1777972872 | 14.44° C | 60% | 1005.2 hPa | 0 mm | - | 0 W/m² | - |
| 1777972568 | 15° C | 60% | 1005.2 hPa | 0 mm | - | 0 W/m² | - |
| 1777972267 | 15° C | 60% | 1005.2 hPa | 0 mm | - | 0 W/m² | - |
| 1777971964 | 15° C | 59% | 1005.2 hPa | 0 mm | - | 0 W/m² | - |
| 1777971662 | 15° C | 60% | 1004.9 hPa | 0 mm | - | 0 W/m² | - |
| 1777971359 | 15° C | 59% | 1005.1 hPa | 0 mm | - | 0 W/m² | - |
* Rain latest hour (hover to see other rain measurements)
** Current wind speed in m/s (hover to see current wind gust speed)